sat.trackr.live / text

‹ back to catalog

STARLINK-34340

NORAD 64163 · 2025-112T

PAYLOAD ACTIVE UNKNOWN

§ Identity

Operator
Country
US
Launch date
2025-05-27
Launch site
AFWTR
Launch vehicle
Mass (kg)
RCS (m²)

Purposes: comms

External: N2YO · Heavens-Above · Gunter

§ Orbital elements

Epoch: 2026-09-20T13:53:35.994912Z

Period
93.91 min
Inclination
97.2905°
Eccentricity
0.0001386
Mean motion
15.33447382 rev/d
Perigee alt
464.6 km
Apogee alt
466.5 km
Semi-major
6,843.7 km
B*
3.0139e-4
RAAN
310.6990°
Arg perigee
104.9128°
Mean anomaly
255.2268°
Rev number
7,276

§ Raw data

STARLINK-343401 64163U 25112T   26263.57888883  .00009668  00000+0  30139-3 0  99922 64163  97.2905 310.6990 0001386 104.9128 255.2268 15.33447382 72767

JSON: /api/v1/satellites/64163 · /tle

For live sub-satellite position, see the globe view (requires WebGL).

§ Visibility from observer

Set your observer location to see the next 7 days of passes ≥ 10°. The values pass through the URL so the page stays shareable.

No JS? Fill the form by hand. The geolocation button needs JavaScript.